"Pseudo-MPEC" for P113eDd

Created 2020 Aug 2 22:07:13 UT using Find_Orb

Click here for an explanation of pseudo-MPECs

 
 Astrometry: 
     P113eDd  C2020 07 20[pu3Kk\vKR$Q58Z`t3J[W@I8u$'%#Fo_DLA5bq;;vl*4'jb::wK5F52
     P113eDd  C2020 07 20Fc0$ji(j8A,\m'L0yAKu3/cny%cn#4)#Rm(v]dgu+M2RU8bTYg)FF52
     P113eDd  C2020 07 20vl;PqXDNlM,x@4uWx-]is5D1xRDe[jb'_8S=6[dcgb]U7oSS6wOAF52
     P113eDd  C2020 07 20`$N^icN+Ehwx_33IP!fhVW]d19TbhZ](^1f(Ongt\eLvR_E):eqKF52
     P113eDd  C2020 07 28C.5.GCpi$SK?7xn_@Bv+nr]-q@7kMZyB_lC=EnZ_22ERTA7mOddoF51
     P113eDd  C2020 07 28f!;95:U1o:#82#-FAlX.kefsY+]x!ISbC0qT%e2w5%C0qVr=A5)wF51
     P113eDd  C2020 07 28bc)E;^nnT07d[FDFXDmAAWlwP/r?9p'VSq7N?k^W/?W-?5Ic\D_9F51
     P113eDd  C2020 07 2876C/b9YCIfI@#w`H5q1T(?t=B7SgPFXgjXP,LcPuOyp,Q0.f[sucF51
     P113eDd KC2020 07 28lIZ5:3VkY42#F0r%:H.mrnD(1cu`h/`WIM3n`!dGBNt!Bv/5n#ZPL01
     P113eDd KC2020 07 28%EmU_swn3Tq`AfBFdCilqjAstrometry4mTJaW^77]^FBWCjjQa*L01
     P113eDd KC2020 07 28r'+nNI7q/a*o.'l/)n%%;oJl1Td89Xf=I]3Xy=5HL-OrpGVe[D+HL01
     P113eDd  C2020 07 29rV6TpHu3r2F*e=s4CZcpQ1LIPamWl;).L@=Bhl/:X/Exr2JSO@^:F51
     P113eDd  C2020 07 29F-k-!p+bBKYn%'.^6-\=Hgredacted;3waql-click$]:Y_nPD1LF51
     P113eDd  C2020 07 29pjEpL.c4DZnl![CbRiIVc6e2@0CFZgkR7XE'FCaniOg$'VM^]jNVF51
     P113eDd  C2020 07 29HfynA`RX$1X_1!EU2@]hGu%k#(HKH!?IB%!U]f3BxhB$3^3EXph%F51
     P113eDd  C2020 07 30.29911 22 01 02.57 -02 10 37.7    ~7U87 20.5 GVNEOCPI52
     P113eDd  C2020 07 30.31272 22 01 02.10 -02 10 39.6    ~7U87 19.8 GVNEOCPI52
     P113eDd  C2020 07 30.31945 22 01 01.98 -02 10 39.4    ~7U87 20.3 GVNEOCPI52
     P113eDd  C2020 07 30EGKHOsMxtm!qLVL0C9Ru'OSo3f:l7\K\*v_3I2exY@o,wu@4H;owF51
     P113eDd  C2020 07 30Hde4Y1Ko6bS3!A6g,4G']S$XIxFK9#;ZhO9yU/5=br)9_j',qe9OF51
     P113eDd  C2020 07 30wMDB@:E[tg0h@?QU692.w%nA,TlKnAIdnG,4;QoiYW^y.niZxS9lF51
     P113eDd  C2020 07 30tyfKnat3Uu?C6Kl%C%7\XE*HGdFT#lNln';UUNdPG-@rSFY]x7\(F51
     P113eDd  C2020 07 31_^F_8#QAYx5a9kA/Gh=gapgW)$/u;kZyktkn%2M#Hhpm_k`ZsMuDF51
     P113eDd  C2020 07 31o,MM;Hh`]gQ13E6EL:mod:TV=nj6Ae4jqbfd,hereL!N#2aI`(=.F51
     P113eDd  C2020 07 31w'H+7?y'forVuFjeq,]7qDcrL@+3v.M%K[,*.xI-%Y\$Hw0_5[)RF51
     P113eDd  C2020 07 31.UMexplanationmBI!pNQQf59d9Dr]JP_!;DjvNC^]J+s`vf'--qF51

Station data:
(F51) Pan-STARRS 1, Haleakala  (N20.707235 W156.255910)  US/Hawaii.
   Observers N. Primak, A. Schultz, S. Watters, J. Thiel, T. Goggia. Measurer
   PS1 Science Consortium. 1.8-m Ritchey-Chrétien + CCD.
(F52) Pan-STARRS 2, Haleakala  (N20.707384 W156.255910)  US/Hawaii. 1.8-m
   Ritchey-Chrétien + CCD.
(I52) Steward Observatory, Mt. Lemmon Station  (N32.442547 W110.788920)
   US/Arizona.  Observers T. A. Pruyne, B. M. Africano, E. J. Christensen, G.
   A. Farneth, D. C. Fuls, A. R. Gibbs, A. D. Grauer, H. Gröller, J. A.
   Johnson, R. A. Kowalski, S. M. Larson, G. J. Leonard, D. Rankin, R. L.
   Seaman, F. C. Shelly. 1.0-m reflector + CCD.
(L01) Višnjan Observatory, Tičan  (N45.290900 E13.749300)  Croatia.
   Observers K. Korlević, E. Pettarin. Measurer E. Pettarin. 1.0-m f/2.9
   reflector + CCD.

Orbital elements:  P113eDd
   Perihelion 2021 Jan 1.841835 +/- 103 TT = 20:12:14 (JD 2459216.341835)
Epoch 2020 Jul 31.0 TT = JDT 2459061.5   Ju: 0.3689           AutoNEOCP
M 344.86876858 +/- 10               (J2000 ecliptic)
n   0.09772056 +/- 0.000823         Peri.   77.94367 +/- 12
a   4.66815649 +/- 0.0262           Node   266.96921 +/- 0.24
e   0.1053526 +/- 0.00773           Incl.    8.44966 +/- 0.028
P  10.09                   H 15.2   G  0.15   U  8.2  
q 4.17635392 +/- 0.0245    Q 5.15995907 +/- 0.0616
From 26 observations 2020 July 20-31; mean residual 0".30
Residuals in arcseconds: 
200720 F52  .24-  .14-    200728 L01  .16-  .12-    200730 F51  .22+  .16+    
200720 F52  .24+  .13+    200728 L01  .25-  .17-    200730 F51  .10+  .30+    
200720 F52  .26+  .07+    200729 F51  .28+  .17+    200730 F51  .12+  .01+    
200720 F52  .29-  .08-    200729 F51  .24+  .35+    200730 F51  .18+  .27+    
200728 F51  .23+  .25+    200729 F51  .28+  .21+    200731 F51  .25+  .02+    
200728 F51  .40+  .36+    200729 F51  .18+  .30+    200731 F51  .10+  .20+    
200728 F51  .13-  .00     200730 I52  .16-  .11+    200731 F51  .14+  .19+    
200728 F51  .11+  .15+    200730 I52  1.1-  1.1-    200731 F51  .02-  .33+    
200728 L01  .04+  .05-    200730 I52  .12+  .55-    

Ephemerides (geocentric):
Date (UTC) HH   RA              Dec         delta   r     elong  mag " sig PA
---- -- -- --  -------------   -----------  ------ ------ -----  --- ---- ---
2020 08 02 22  21 59 14.456   -02 14 15.19  3.2405 4.1968 157.7 21.3 .548 167
2020 08 02 23  21 59 13.177   -02 14 18.09  3.2403 4.1968 157.7 21.3 .555 167
2020 08 03 00  21 59 11.898   -02 14 21.00  3.2401 4.1968 157.7 21.3 .563 167
2020 08 03 01  21 59 10.617   -02 14 23.92  3.2398 4.1967 157.8 21.3 .571 167
2020 08 03 02  21 59 09.336   -02 14 26.85  3.2396 4.1967 157.8 21.3 .579 167
2020 08 03 03  21 59 08.054   -02 14 29.79  3.2394 4.1967 157.9 21.3 .587 166
2020 08 03 04  21 59 06.772   -02 14 32.74  3.2392 4.1967 157.9 21.3 .594 166
2020 08 03 05  21 59 05.489   -02 14 35.69  3.2390 4.1967 157.9 21.3 .602 166
2020 08 03 06  21 59 04.204   -02 14 38.65  3.2388 4.1967 158.0 21.3 .610 166
2020 08 03 07  21 59 02.920   -02 14 41.63  3.2386 4.1967 158.0 21.3 .618 166
2020 08 03 08  21 59 01.634   -02 14 44.61  3.2383 4.1967 158.1 21.3 .626 166
2020 08 03 09  21 59 00.348   -02 14 47.59  3.2381 4.1967 158.1 21.3 .635 166
2020 08 03 10  21 58 59.061   -02 14 50.59  3.2379 4.1966 158.1 21.3 .643 166
2020 08 03 11  21 58 57.774   -02 14 53.60  3.2377 4.1966 158.2 21.3 .651 165
2020 08 03 12  21 58 56.485   -02 14 56.61  3.2375 4.1966 158.2 21.3 .659 165
2020 08 03 13  21 58 55.196   -02 14 59.64  3.2373 4.1966 158.3 21.3 .667 165
2020 08 03 14  21 58 53.906   -02 15 02.67  3.2371 4.1966 158.3 21.3 .676 165
2020 08 03 15  21 58 52.616   -02 15 05.71  3.2369 4.1966 158.3 21.3 .684 165
2020 08 03 16  21 58 51.325   -02 15 08.75  3.2367 4.1966 158.4 21.3 .692 165
2020 08 03 17  21 58 50.033   -02 15 11.81  3.2365 4.1966 158.4 21.3 .701 165
2020 08 03 18  21 58 48.740   -02 15 14.88  3.2363 4.1966 158.5 21.3 .709 165
2020 08 03 19  21 58 47.447   -02 15 17.95  3.2360 4.1965 158.5 21.3 .718 165
2020 08 03 20  21 58 46.153   -02 15 21.03  3.2358 4.1965 158.5 21.3 .726 164
2020 08 03 21  21 58 44.858   -02 15 24.12  3.2356 4.1965 158.6 21.3 .735 164
2020 08 03 22  21 58 43.563   -02 15 27.22  3.2354 4.1965 158.6 21.3 .743 164
2020 08 03 23  21 58 42.267   -02 15 30.33  3.2352 4.1965 158.7 21.3 .752 164
2020 08 04 00  21 58 40.970   -02 15 33.45  3.2350 4.1965 158.7 21.3 .760 164
2020 08 04 01  21 58 39.673   -02 15 36.57  3.2348 4.1965 158.7 21.3 .769 164
2020 08 04 02  21 58 38.374   -02 15 39.70  3.2346 4.1965 158.8 21.3 .778 164
2020 08 04 03  21 58 37.075   -02 15 42.84  3.2344 4.1965 158.8 21.3 .787 164
2020 08 04 04  21 58 35.776   -02 15 45.99  3.2342 4.1964 158.9 21.3 .795 164
2020 08 04 05  21 58 34.476   -02 15 49.15  3.2340 4.1964 158.9 21.3 .804 164
2020 08 04 06  21 58 33.175   -02 15 52.32  3.2338 4.1964 158.9 21.3 .813 163
2020 08 04 07  21 58 31.873   -02 15 55.49  3.2336 4.1964 159.0 21.3 .822 163
2020 08 04 08  21 58 30.571   -02 15 58.68  3.2334 4.1964 159.0 21.3 .831 163
2020 08 04 09  21 58 29.268   -02 16 01.87  3.2332 4.1964 159.1 21.3 .840 163
2020 08 04 10  21 58 27.964   -02 16 05.07  3.2330 4.1964 159.1 21.3 .849 163
2020 08 04 11  21 58 26.660   -02 16 08.28  3.2328 4.1964 159.1 21.3 .858 163
2020 08 04 12  21 58 25.355   -02 16 11.49  3.2326 4.1964 159.2 21.3 .867 163
2020 08 04 13  21 58 24.049   -02 16 14.72  3.2324 4.1963 159.2 21.3 .877 163
2020 08 04 14  21 58 22.743   -02 16 17.95  3.2322 4.1963 159.3 21.3 .886 163
2020 08 04 15  21 58 21.436   -02 16 21.19  3.2320 4.1963 159.3 21.3 .895 162
2020 08 04 16  21 58 20.128   -02 16 24.44  3.2318 4.1963 159.3 21.3 .904 162
2020 08 04 17  21 58 18.820   -02 16 27.70  3.2316 4.1963 159.4 21.3 .914 162
2020 08 04 18  21 58 17.511   -02 16 30.97  3.2314 4.1963 159.4 21.3 .923 162
2020 08 04 19  21 58 16.201   -02 16 34.24  3.2312 4.1963 159.5 21.3 .932 162
2020 08 04 20  21 58 14.890   -02 16 37.53  3.2310 4.1963 159.5 21.3 .942 162
2020 08 04 21  21 58 13.579   -02 16 40.82  3.2308 4.1963 159.5 21.3 .951 162